| time (UTC) | temp F | wind direction | speed MPH | gust MPH | rain 1hr in | rain 24hr in | rain mn in | humidity % | barometer mb |
| 20260504050519 | 47 | 0.0 | 0.0 | 0.00 | 0.01 | 0.00 | 59 | 1012.5 | |
| 20260504045520 | 47 | 0.0 | 0.0 | 0.00 | 0.01 | 0.00 | 60 | 1012.5 | |
| 20260504044519 | 47 | 0.0 | 0.0 | 0.00 | 0.01 | 0.00 | 58 | 1012.5 | |
| 20260504043519 | 47 | 0.0 | 0.0 | 0.00 | 0.01 | 0.00 | 58 | 1012.5 | |
| 20260504042519 | 47 | 0.0 | 0.0 | 0.00 | 0.01 | 0.00 | 60 | 1012.5 | |
| 20260504041519 | 47 | 0.0 | 0.0 | 0.00 | 0.01 | 0.00 | 60 | 1012.5 | |
| 20260504040519 | 46 | 0.0 | 0.0 | 0.00 | 0.01 | 0.00 | 62 | 1012.6 | |
| 20260504035518 | 45 | 0.0 | 2.0 | 0.00 | 0.01 | 0.01 | 64 | 1012.6 | |
| 20260504034521 | 44 | 293 | 1.0 | 3.0 | 0.00 | 0.01 | 0.01 | 65 | 1012.4 |
| 20260504033519 | 44 | 0.0 | 0.0 | 0.00 | 0.01 | 0.01 | 64 | 1012.3 | |
| 20260504032519 | 44 | 0.0 | 0.0 | 0.00 | 0.01 | 0.01 | 65 | 1012.3 | |
| 20260504031519 | 45 | 0.0 | 0.0 | 0.00 | 0.01 | 0.01 | 64 | 1012.3 | |
| 20260504030519 | 45 | 0.0 | 0.0 | 0.00 | 0.01 | 0.01 | 64 | 1012.2 | |
| 20260504025730 | 45 | 0.0 | 0.0 | 0.00 | 0.01 | 0.01 | 64 | 1012.2 | |
| 20260504024518 | 46 | 0.0 | 0.0 | 0.00 | 0.01 | 0.01 | 64 | 1012.2 | |
| 20260504023519 | 46 | 0.0 | 0.0 | 0.00 | 0.01 | 0.01 | 63 | 1012.2 | |
| 20260504022519 | 47 | 0.0 | 0.0 | 0.00 | 0.01 | 0.01 | 62 | 1012.2 | |
| 20260504021519 | 47 | 0.0 | 0.0 | 0.00 | 0.01 | 0.01 | 61 | 1012.1 | |
| 20260504020519 | 48 | 0.0 | 0.0 | 0.00 | 0.01 | 0.01 | 59 | 1012.2 | |
| 20260504015943 | 48 | 0.0 | 0.0 | 0.00 | 0.01 | 0.01 | 56 | 1012.2 | |
| 20260504014519 | 49 | 0.0 | 0.0 | 0.00 | 0.01 | 0.01 | 55 | 1012.2 | |
| 20260504013945 | 50 | 0.0 | 0.0 | 0.00 | 0.01 | 0.01 | 53 | 1012.2 | |
| 20260504012519 | 50 | 0.0 | 0.0 | 0.00 | 0.01 | 0.01 | 53 | 1012.1 | |
| 20260504011519 | 51 | 0.0 | 0.0 | 0.00 | 0.01 | 0.01 | 51 | 1012.0 | |
| 20260504010519 | 51 | 0.0 | 0.0 | 0.00 | 0.01 | 0.01 | 52 | 1011.9 | |
| 20260504005519 | 52 | 0.0 | 0.0 | 0.00 | 0.01 | 0.01 | 47 | 1011.8 | |
| 20260504004519 | 52 | 0.0 | 0.0 | 0.00 | 0.01 | 0.01 | 47 | 1011.8 | |
| 20260504003519 | 53 | 0.0 | 0.0 | 0.00 | 0.01 | 0.01 | 46 | 1011.8 | |
| 20260504002519 | 54 | 0.0 | 0.0 | 0.00 | 0.01 | 0.01 | 45 | 1011.6 | |
| 20260504001730 | 55 | 0.0 | 0.0 | 0.00 | 0.01 | 0.01 | 44 | 1011.6 | |
| 20260504000518 | 56 | 0.0 | 1.0 | 0.00 | 0.01 | 0.01 | 42 | 1011.5 | |
| 20260503235519 | 57 | 0.0 | 2.0 | 0.00 | 0.01 | 0.01 | 40 | 1011.5 | |
| 20260503234519 | 58 | 293 | 3.0 | 6.0 | 0.00 | 0.01 | 0.01 | 38 | 1011.3 |
| 20260503233728 | 59 | 293 | 4.0 | 9.0 | 0.00 | 0.01 | 0.01 | 38 | 1011.2 |
| 20260503232519 | 59 | 293 | 2.0 | 5.0 | 0.00 | 0.01 | 0.01 | 37 | 1011.2 |
| 20260503231519 | 59 | 248 | 3.0 | 8.0 | 0.00 | 0.01 | 0.01 | 36 | 1011.1 |
| 20260503230519 | 60 | 270 | 5.0 | 12.0 | 0.00 | 0.01 | 0.01 | 35 | 1011.1 |
| 20260503225519 | 60 | 338 | 3.0 | 8.0 | 0.00 | 0.01 | 0.01 | 36 | 1011.1 |
| 20260503224733 | 60 | 315 | 5.0 | 9.0 | 0.00 | 0.01 | 0.01 | 35 | 1011.0 |
| 20260503223519 | 60 | 270 | 5.0 | 11.0 | 0.00 | 0.01 | 0.01 | 35 | 1011.1 |
| 20260503222730 | 60 | 293 | 5.0 | 11.0 | 0.00 | 0.01 | 0.01 | 34 | 1011.1 |
| 20260503221519 | 59 | 270 | 6.0 | 14.0 | 0.00 | 0.01 | 0.01 | 34 | 1011.1 |
| 20260503220519 | 60 | 293 | 7.0 | 15.0 | 0.00 | 0.01 | 0.01 | 34 | 1011.2 |
| 20260503215519 | 60 | 270 | 3.0 | 7.0 | 0.00 | 0.01 | 0.01 | 35 | 1011.2 |
| 20260503214519 | 60 | 270 | 5.0 | 11.0 | 0.00 | 0.01 | 0.01 | 35 | 1011.1 |
| 20260503213519 | 61 | 270 | 7.0 | 13.0 | 0.00 | 0.01 | 0.01 | 34 | 1011.0 |
| 20260503212519 | 60 | 315 | 6.0 | 12.0 | 0.00 | 0.01 | 0.01 | 35 | 1011.0 |
| 20260503211519 | 61 | 293 | 6.0 | 13.0 | 0.00 | 0.01 | 0.01 | 35 | 1011.0 |
| 20260503210519 | 60 | 315 | 5.0 | 13.0 | 0.00 | 0.01 | 0.01 | 34 | 1011.1 |
| 20260503205519 | 60 | 293 | 8.0 | 22.0 | 0.00 | 0.01 | 0.01 | 36 | 1011.2 |
| 20260503204519 | 60 | 315 | 6.0 | 19.0 | 0.00 | 0.01 | 0.01 | 37 | 1011.1 |
| 20260503203519 | 60 | 270 | 4.0 | 12.0 | 0.00 | 0.01 | 0.01 | 36 | 1011.1 |
| 20260503202519 | 59 | 293 | 4.0 | 10.0 | 0.00 | 0.01 | 0.01 | 38 | 1011.2 |
| 20260503201732 | 60 | 315 | 6.0 | 13.0 | 0.00 | 0.01 | 0.01 | 37 | 1011.3 |
| 20260503200520 | 60 | 315 | 9.0 | 20.0 | 0.00 | 0.01 | 0.01 | 36 | 1011.5 |
| 20260503195519 | 59 | 293 | 8.0 | 20.0 | 0.00 | 0.01 | 0.01 | 38 | 1011.5 |
| 20260503194519 | 59 | 293 | 7.0 | 15.0 | 0.00 | 0.01 | 0.01 | 36 | 1011.4 |
| 20260503193519 | 59 | 315 | 7.0 | 21.0 | 0.00 | 0.01 | 0.01 | 36 | 1011.7 |
| 20260503192520 | 59 | 270 | 5.0 | 16.0 | 0.01 | 0.01 | 0.01 | 35 | 1011.9 |
| 20260503191519 | 58 | 293 | 8.0 | 20.0 | 0.01 | 0.01 | 0.01 | 37 | 1011.9 |
| 20260503190519 | 58 | 270 | 8.0 | 13.0 | 0.01 | 0.01 | 0.01 | 36 | 1012.1 |
| 20260503185519 | 57 | 293 | 8.0 | 17.0 | 0.01 | 0.01 | 0.01 | 38 | 1012.1 |
| 20260503184519 | 57 | 293 | 8.0 | 13.0 | 0.01 | 0.01 | 0.01 | 38 | 1012.3 |
| 20260503183520 | 57 | 315 | 9.0 | 22.0 | 0.01 | 0.01 | 0.01 | 36 | 1012.5 |
| 20260503182519 | 57 | 293 | 6.0 | 12.0 | 0.00 | 0.00 | 0.00 | 37 | 1012.4 |
| 20260503181519 | 57 | 293 | 6.0 | 18.0 | 0.00 | 0.00 | 0.00 | 38 | 1012.4 |
| 20260503180519 | 56 | 293 | 6.0 | 10.0 | 0.00 | 0.00 | 0.00 | 37 | 1012.3 |
| 20260503175519 | 56 | 315 | 7.0 | 17.0 | 0.00 | 0.00 | 0.00 | 36 | 1012.4 |
| 20260503174519 | 56 | 293 | 7.0 | 15.0 | 0.00 | 0.00 | 0.00 | 39 | 1012.5 |
| 20260503173519 | 56 | 293 | 3.0 | 9.0 | 0.00 | 0.00 | 0.00 | 44 | 1012.4 |
| 20260503172520 | 55 | 315 | 7.0 | 17.0 | 0.00 | 0.00 | 0.00 | 39 | 1012.8 |
| 20260503171519 | 55 | 270 | 7.0 | 15.0 | 0.00 | 0.00 | 0.00 | 39 | 1012.8 |
| 20260503170519 | 55 | 315 | 7.0 | 16.0 | 0.00 | 0.00 | 0.00 | 38 | 1012.9 |
| 20260503150519 | 50 | 293 | 9.0 | 22.0 | 0.00 | 0.01 | 0.00 | 43 | 1014.1 |
| 20260503130519 | 46 | 293 | 4.0 | 7.0 | 0.00 | 0.01 | 0.00 | 52 | 1014.2 |
| 20260503110519 | 39 | 0.0 | 2.0 | 0.00 | 0.01 | 0.00 | 63 | 1013.5 | |
| 20260503081520 | 42 | 315 | 4.0 | 10.0 | 0.00 | 0.01 | 0.00 | 63 | 1012.0 |
| 20260503080520 | 42 | 315 | 4.0 | 7.0 | 0.00 | 0.01 | 0.00 | 63 | 1012.0 |
| 20260503072520 | 43 | 315 | 2.0 | 6.0 | 0.00 | 0.01 | 0.00 | 65 | 1011.6 |
| 20260503071730 | 43 | 315 | 3.0 | 5.0 | 0.00 | 0.01 | 0.00 | 64 | 1011.5 |
| 20260503070520 | 43 | 315 | 3.0 | 6.0 | 0.00 | 0.01 | 0.00 | 65 | 1011.4 |